DD5ASA Weather Reports


time (UTC)temp
C
wind
direction
speed
KPH
gust
KPH
rain 1hr
cm
rain 24hr
cm
rain mn
cm
humidity
%
barometer
mb
20260506102527 20 204 4.8 6.4 0.00 0.86 0.74 48 1006.8
20260506101517 20 231 6.4 8.0 0.00 0.86 0.74 50 1006.8
20260506100143 19 215 6.4 9.7 0.00 0.86 0.74 54 1006.8
20260506095033 18 219 9.7 12.9 0.00 0.86 0.74 55 1006.8
20260506094053 16 189 6.4 9.7 0.00 0.86 0.74 61 1006.8
20260506093056 16 214 4.8 9.7 0.00 0.86 0.74 62 1006.8
20260506092031 16 186 3.2 6.4 0.00 0.86 0.74 66 1006.8
20260506091023 16 212 4.8 4.8 0.00 0.86 0.74 66 1006.8
20260506090048 16 227 4.8 9.7 0.00 0.86 0.74 66 1006.8
20260506085034 16 214 3.2 4.8 0.00 0.86 0.74 66 1006.8
20260506084050 16 229 3.2 4.8 0.00 0.86 0.74 66 1006.8
20260506083045 16 182 3.2 8.0 0.00 0.86 0.74 67 1006.8
20260506082047 15 205 3.2 3.2 0.00 0.86 0.74 66 1006.8
20260506081053 16 228 6.4 12.9 0.00 0.86 0.74 64 1006.8
20260506073030 16 190 4.8 8.0 0.00 0.86 0.74 68 1006.8
20260506072044 15 196 3.2 8.0 0.00 0.86 0.74 70 1006.8
20260506071023 15 256 3.2 9.7 0.00 0.86 0.74 73 1006.8
20260506070117 14 226 3.2 4.8 0.00 0.86 0.74 76 1006.8
20260506062023 13 237 3.2 4.8 0.00 0.86 0.74 81 1006.8
20260506060538 13 210 3.2 3.2 0.00 0.86 0.74 82 1006.8
20260506050517 12 221 1.6 3.2 0.00 0.86 0.74 84 1006.8
20260506044557 12 66 0.0 3.2 0.00 0.86 0.74 82 1005.8
20260506043047 11 181 3.2 3.2 0.00 0.86 0.74 80 1006.8
20260506042059 11 157 1.6 3.2 0.00 0.86 0.74 79 1005.8
20260506041027 11 129 1.6 3.2 0.00 0.86 0.74 79 1005.8
20260506040045 11 291 1.6 4.8 0.00 0.86 0.74 78 1005.8
20260506035018 11 115 0.0 3.2 0.00 0.86 0.74 79 1005.8
20260506034037 11 90 0.0 3.2 0.00 0.86 0.74 80 1005.8
20260506033043 11 194 1.6 3.2 0.00 0.86 0.74 81 1005.8
20260506032017 11 159 1.6 3.2 0.00 0.86 0.74 80 1005.8
20260506031045 11 233 0.0 1.6 0.00 0.86 0.74 81 1005.8
20260506030035 11 178 1.6 3.2 0.00 0.86 0.74 79 1005.8
20260506025015 11 139 1.6 4.8 0.00 0.86 0.74 78 1005.8
20260506024025 11 0.0 0.0 0.00 0.86 0.74 75 1006.4
20260506023059 11 90 0.0 1.6 0.00 0.86 0.74 75 1006.8
20260506022025 12 0.0 0.0 0.00 0.86 0.74 75 1006.8
20260506021107 12 0.0 0.0 0.00 0.86 0.74 75 1006.8
20260506020028 12 0.0 0.0 0.00 0.86 0.74 76 1006.8
20260506015058 12 0.0 0.0 0.00 0.86 0.74 77 1006.8
20260506013553 12 0.0 0.0 0.00 0.86 0.74 75 1006.8
20260506012537 12 0.0 0.0 0.00 0.86 0.74 76 1006.8
20260506011515 12 0.0 0.0 0.00 0.86 0.74 76 1006.8
20260506010611 12 33 0.0 0.0 0.00 0.86 0.74 76 1006.8
20260506005515 12 135 0.0 1.6 0.00 0.86 0.74 78 1006.8
20260506004527 12 0.0 0.0 0.00 0.86 0.74 81 1006.8
20260506003526 12 225 0.0 1.6 0.00 0.86 0.74 82 1006.8
20260506002534 12 0.0 0.0 0.00 0.86 0.74 79 1006.2
20260506001545 12 0.0 0.0 0.00 0.86 0.74 80 1005.8
20260506000027 12 45 0.0 0.0 0.00 0.86 0.74 82 1005.8
20260505235033 12 215 3.2 4.8 0.00 0.86 0.74 84 1005.8
20260505234017 12 45 0.0 3.2 0.43 0.86 0.74 73 1006.4
20260505233027 12 68 0.0 3.2 0.43 0.86 0.74 73 1006.8
20260505232029 12 53 3.2 3.2 0.30 0.71 0.61 73 1007.8
20260505231025 12 56 0.0 1.6 0.30 0.71 0.61 74 1008.5
20260505230026 12 22 0.0 0.0 0.10 0.53 0.41 74 1008.9
20260505225023 12 0.0 0.0 0.00 0.43 0.30 77 1008.9
20260505224051 12 145 3.2 4.8 0.33 0.33 0.20 80 1008.9
20260505223024 12 235 3.2 8.0 0.33 0.33 0.20 81 1008.9
20260505221526 13 257 3.2 3.2 0.33 0.33 0.20 81 1008.9
20260505220538 13 289 3.2 4.8 0.33 0.33 0.20 77 1008.9
20260505215530 14 262 4.8 8.0 0.10 0.10 0.10 83 1008.2
20260505214620 14 216 6.4 11.3 0.00 0.00 0.00 81 1007.8
20260505213559 15 172 4.8 8.0 0.00 0.00 0.00 73 1006.8
20260505212539 15 358 4.8 8.0 0.00 0.00 0.00 65 1006.8
20260505211523 15 40 4.8 11.3 0.00 0.00 0.00 65 1006.8
20260505210554 15 28 6.4 8.0 0.00 0.00 0.00 63 1006.8
20260505205531 15 30 4.8 8.0 0.00 0.00 0.00 62 1006.8
20260505204544 15 29 3.2 4.8 0.00 0.00 0.00 61 1006.8
20260505203015 16 31 4.8 4.8 0.00 0.00 0.00 61 1006.8
20260505202016 16 33 6.4 8.0 0.00 0.00 0.00 61 1006.8
20260505201016 16 21 4.8 8.0 0.00 0.00 0.00 59 1006.8
20260505200056 16 356 4.8 8.0 0.00 0.00 0.00 59 1006.8
20260505195040 16 19 4.8 9.7 0.00 0.00 0.00 57 1006.8
20260505194024 16 41 3.2 6.4 0.00 0.00 0.00 57 1006.8
20260505193053 16 53 6.4 8.0 0.00 0.00 0.00 58 1006.8
20260505192108 16 32 4.8 8.0 0.00 0.00 0.00 55 1006.8
20260505190549 17 29 4.8 6.4 0.00 0.00 0.00 54 1006.8
20260505185536 17 70 4.8 9.7 0.00 0.00 0.00 53 1006.8
20260505184529 17 47 1.6 6.4 0.00 0.00 0.00 53 1006.8
20260505183547 17 14 3.2 6.4 0.00 0.00 0.00 52 1006.8
20260505182547 17 89 1.6 3.2 0.00 0.00 0.00 50 1006.8
20260505181602 17 58 3.2 6.4 0.00 0.00 0.00 1006.8
20260505180523 18 25 3.2 8.0 0.00 0.00 0.00 48 1007.8
20260505175517 18 31 3.2 4.8 0.00 0.00 0.00 48 1007.8
20260505174610 18 24 4.8 8.0 0.00 0.00 0.00 47 1007.8
20260505173520 18 14 3.2 8.0 0.00 0.00 0.00 47 1007.8
20260505172554 18 51 1.6 3.2 0.00 0.00 0.00 47 1007.8
20260505171536 19 19 3.2 4.8 0.00 0.00 0.00 46 1007.8
20260505170524 19 24 4.8 11.3 0.00 0.00 0.00 46 1007.8
20260505165543 20 9 0.0 1.6 0.00 0.00 0.00 46 1007.8
20260505164527 20 29 3.2 4.8 0.00 0.00 0.00 45 1007.8
20260505163519 20 5 6.4 8.0 0.00 0.00 0.00 45 1007.8
20260505162548 20 67 3.2 4.8 0.00 0.00 0.00 44 1007.8
20260505161016 20 27 6.4 12.9 0.00 0.00 0.00 44 1007.8
20260505160112 20 48 8.0 11.3 0.00 0.00 0.00 44 1007.8
20260505153016 20 43 4.8 8.0 0.00 0.00 0.00 44 1007.8
20260505152054 20 34 3.2 4.8 0.00 0.00 0.00 44 1007.8
20260505151028 20 42 6.4 9.7 0.00 0.00 0.00 43 1008.2
20260505140540 22 347 3.2 6.4 0.00 0.00 0.00 41 1008.9
20260505124602 23 41 6.4 9.7 0.00 0.00 0.00 38 1008.9
20260505123550 24 44 3.2 4.8 0.00 0.00 0.00 38 1008.9
20260505122534 25 339 3.2 4.8 0.00 0.00 0.00 37 1008.9
20260505121540 25 28 6.4 8.0 0.00 0.00 0.00 37 1008.9
20260505120556 25 52 6.4 8.0 0.00 0.00 0.00 37 1008.9
20260505115725 25 19 6.4 8.0 0.00 0.00 0.00 37 1008.9
20260505114531 25 347 3.2 4.8 0.00 0.00 0.00 37 1008.9
20260505113538 25 47 6.4 8.0 0.00 0.00 0.00 38 1008.9
20260505112522 25 45 6.4 9.7 0.00 0.00 0.00 39 1008.9
20260505111559 25 345 6.4 11.3 0.00 0.00 0.00 38 1008.9
20260505110533 25 341 3.2 4.8 0.00 0.00 0.00 39 1009.9